QZS-3 (QZSS/PRN 189)

Last updated on Sun May 05 2024 00:03:15 GMT+0000 (Coordinated Universal Time)

1 42917U 17048A 24124.99980058 -.00000350 00000+0 00000+0 0 9991 2 42917 0.0698 140.3868 0002758 272.2550 296.7022 1.00273222 24602
UTC large
Height (km)
Speed (km/s)
/
Latitude / Longitude
Inclination (degrees)
Orbital Period (minutes)
Azimuth
Elevation
Range (km)
Doppler Factor

Next 0 passes for location: London (51.5072 / 0.1276)

Sorry there are no passes over London.